Weather History for KGEV - May, 2013

Change the Weather History Date:

Thursday, May 23, 2013

  Actual Average Record
Temperature  
Mean Temperature 64 °F -  
Max Temperature 73 °F 71 °F 83 °F (1970)
Min Temperature 56 °F 50 °F 31 °F (1993)
Growing Degree Days 14 (Base 50)    
Moisture  
Dew Point 53 °F    
Average Humidity 74    
Maximum Humidity 94    
Minimum Humidity 35    
Precipitation  
Precipitation 0.08 in - - ()
Sea Level Pressure  
Sea Level Pressure 29.99 in    
Wind  
Wind Speed 5 mph (WNW)    
Max Wind Speed 24 mph    
Max Gust Speed 36 mph    
Visibility 8 miles    
Events Fog , Rain    
Averages and records for this station are not official NWS values.
T = Trace of Precipitation, MM = Missing Value Source: NWS Daily Summary

Daily Weather History Graph

Daily Weather History Graph

Search for Another Location

Airport or City:

Trip Planner

Search our weather history database for the weather conditions in past years. The results will help you decide how hot, cold, wet, or windy it might be!

Date:

Astronomy

May. 23, 2013 Rise Set
Actual Time 6:13 AM EDT 8:32 PM EDT
Civil Twilight 5:43 AM EDT 9:01 PM EDT
Nautical Twilight 5:07 AM EDT 9:37 PM EDT
Astronomical Twilight 4:28 AM EDT 10:17 PM EDT
Moon 7:04 PM EDT (5/23) 4:54 AM EDT (5/23)
Length of Visible Light 15h 17m
Length of Day
14h 18m
Waxing Gibbous, 97% of the Moon is Illuminated
May 23
Waxing Gibbous
May 25
Full
May 31
Last Quarter
Jun 8
New
Jun 16
First Quarter

Hourly Weather History & Observations

Time (EDT) Temp. Dew Point Humidity Pressure Visibility Wind Dir Wind Speed Gust Speed Precip Events Conditions
12:15 AM 58.5 °F 55.9 °F 91% 30.04 in 10.0 mi Calm Calm - N/A   Mostly Cloudy
12:35 AM 57.9 °F 55.8 °F 92% 30.05 in 0.5 mi Calm Calm - N/A Fog Fog
12:55 AM 57.6 °F 55.6 °F 93% 30.04 in 2.0 mi Calm Calm - N/A Rain Rain
1:15 AM 58.1 °F 56.3 °F 94% 30.02 in 5.0 mi Calm Calm - 0.02 in Rain Rain
1:35 AM 59.5 °F 55.6 °F 87% 30.01 in 10.0 mi West 4.6 mph - 0.03 in Rain Rain
1:55 AM 58.1 °F 55.0 °F 90% 30.01 in 10.0 mi Calm Calm - 0.03 in   Drizzle
2:15 AM 57.6 °F 55.0 °F 91% 30.01 in 7.0 mi Calm Calm - N/A   Overcast
2:35 AM 57.2 °F 55.2 °F 93% 30.01 in 7.0 mi Calm Calm - N/A   Drizzle
2:55 AM 57.2 °F 55.2 °F 93% 30.00 in 7.0 mi Calm Calm - N/A Rain Light Rain
3:15 AM 57.2 °F 55.4 °F 94% 29.99 in 7.0 mi Calm Calm - N/A Rain Rain
3:35 AM 57.2 °F 55.4 °F 94% 30.00 in 7.0 mi Calm Calm - N/A   Overcast
3:55 AM 57.2 °F 55.2 °F 93% 30.00 in 5.0 mi Calm Calm - N/A   Overcast
4:15 AM 57.2 °F 55.4 °F 94% 30.01 in 0.5 mi Calm Calm - N/A Fog Fog
4:35 AM 57.2 °F 55.4 °F 94% 30.00 in 5.0 mi Calm Calm - N/A   Overcast
4:55 AM 57.0 °F 55.2 °F 94% 30.00 in 4.0 mi Calm Calm - N/A   Overcast
5:15 AM 56.7 °F 54.9 °F 94% 30.00 in 0.8 mi Calm Calm - N/A   Overcast
5:35 AM 56.7 °F 54.9 °F 94% 30.00 in 5.0 mi Calm Calm - N/A   Mostly Cloudy
5:55 AM 56.3 °F 54.5 °F 94% 30.00 in 5.0 mi Calm Calm - N/A   Scattered Clouds
6:15 AM 56.3 °F 54.5 °F 94% 30.00 in 2.5 mi Calm Calm - N/A   Scattered Clouds
6:35 AM 56.3 °F 54.5 °F 94% 30.01 in 0.5 mi Calm Calm - N/A Fog Fog
6:55 AM 56.3 °F 54.5 °F 94% 30.02 in 4.0 mi Calm Calm - N/A   Scattered Clouds
7:15 AM 56.7 °F 54.9 °F 94% 30.02 in 0.2 mi NW 3.5 mph - N/A Fog Fog
7:35 AM 58.3 °F 56.5 °F 94% 30.01 in 10.0 mi West 5.8 mph - N/A   Scattered Clouds
7:55 AM 58.6 °F 56.5 °F 93% 30.01 in 7.0 mi Calm Calm - N/A   Mostly Cloudy
8:15 AM 57.7 °F 55.8 °F 93% 30.02 in 0.2 mi Calm Calm - N/A Fog Fog
8:35 AM 58.3 °F 56.5 °F 94% 30.02 in 1.5 mi Calm Calm - N/A   Overcast
8:55 AM 58.5 °F 56.7 °F 94% 30.02 in 3.0 mi Calm Calm - N/A   Overcast
9:15 AM 62.2 °F 55.8 °F 79% 30.02 in 10.0 mi West 9.2 mph - N/A   Mostly Cloudy
9:35 AM 64.2 °F 56.5 °F 76% 30.02 in 10.0 mi West 11.5 mph - N/A   Mostly Cloudy
9:55 AM 63.0 °F 56.8 °F 80% 30.02 in 10.0 mi West 8.1 mph - N/A Rain Light Rain
10:15 AM 62.2 °F 55.4 °F 78% 30.02 in 10.0 mi West 11.5 mph 17.3 mph N/A   Overcast
10:35 AM 62.6 °F 55.9 °F 79% 30.02 in 5.0 mi NW 12.7 mph 19.6 mph N/A   Haze
10:55 AM 62.8 °F 54.5 °F 74% 30.02 in 10.0 mi West 6.9 mph - N/A   Overcast
11:15 AM 64.2 °F 54.0 °F 69% 30.02 in 10.0 mi West 8.1 mph - N/A   Mostly Cloudy
11:35 AM 65.5 °F 52.9 °F 64% 30.02 in 10.0 mi WNW 11.5 mph 19.6 mph N/A   Scattered Clouds
11:55 AM 67.3 °F 53.2 °F 61% 30.02 in 10.0 mi West 13.8 mph - N/A   Scattered Clouds
12:15 PM 68.5 °F 52.5 °F 57% 30.02 in 10.0 mi West 12.7 mph 17.3 mph N/A   Scattered Clouds
12:35 PM 68.2 °F 52.0 °F 56% 30.02 in 10.0 mi West 10.4 mph 17.3 mph N/A   Mostly Cloudy
12:55 PM 69.1 °F 51.3 °F 53% 30.01 in 10.0 mi West 12.7 mph 19.6 mph N/A   Mostly Cloudy
1:15 PM 68.5 °F 51.6 °F 55% 30.01 in 10.0 mi West 6.9 mph 17.3 mph N/A   Mostly Cloudy
1:35 PM 70.7 °F 50.9 °F 49% 30.00 in 10.0 mi West 6.9 mph 16.1 mph N/A   Scattered Clouds
1:55 PM 70.5 °F 49.3 °F 47% 29.99 in 10.0 mi West 6.9 mph 16.1 mph N/A   Scattered Clouds
2:15 PM 72.0 °F 49.6 °F 45% 29.98 in 10.0 mi WSW 13.8 mph - N/A   Scattered Clouds
2:35 PM 70.9 °F 48.2 °F 44% 29.97 in 10.0 mi West 17.3 mph 23.0 mph N/A   Clear
2:55 PM 70.7 °F 48.4 °F 45% 29.97 in 10.0 mi WNW 15.0 mph - N/A   Clear
3:15 PM 71.8 °F 49.1 °F 45% 29.96 in 10.0 mi West 11.5 mph - N/A   Clear
3:35 PM 72.5 °F 49.6 °F 44% 29.96 in 10.0 mi WSW 8.1 mph 18.4 mph N/A   Clear
3:55 PM 72.3 °F 46.8 °F 40% 29.95 in 10.0 mi West 9.2 mph 17.3 mph N/A   Clear
4:15 PM 73.2 °F 46.9 °F 39% 29.95 in 10.0 mi WSW 8.1 mph - N/A   Scattered Clouds
4:35 PM 73.2 °F 45.7 °F 37% 29.95 in 10.0 mi West 8.1 mph 17.3 mph N/A   Scattered Clouds
4:55 PM 73.6 °F 44.6 °F 35% 29.94 in 10.0 mi West 12.7 mph 19.6 mph N/A   Clear
5:15 PM 72.1 °F 45.7 °F 39% 29.93 in 10.0 mi WSW 9.2 mph 16.1 mph N/A   Clear
5:35 PM 72.9 °F 45.3 °F 37% 29.93 in 10.0 mi West 10.4 mph - N/A   Scattered Clouds
5:55 PM 71.8 °F 46.0 °F 40% 29.94 in 10.0 mi West 9.2 mph - N/A   Mostly Cloudy
6:15 PM 70.5 °F 47.3 °F 44% 29.95 in 10.0 mi NW 24.2 mph 35.7 mph N/A   Mostly Cloudy
6:35 PM 59.7 °F 51.8 °F 75% 29.98 in 4.0 mi WNW 23.0 mph 27.6 mph 0.04 in Rain Rain
6:55 PM 60.1 °F 52.0 °F 75% 29.97 in 10.0 mi WNW 13.8 mph 23.0 mph 0.05 in Rain Light Rain
7:15 PM 63.0 °F 54.9 °F 75% 29.95 in 10.0 mi WNW 8.1 mph - N/A   Overcast
7:35 PM 62.4 °F 53.4 °F 72% 29.95 in 10.0 mi WNW 5.8 mph 17.3 mph N/A   Scattered Clouds
7:55 PM 60.4 °F 52.7 °F 76% 29.95 in 10.0 mi West 9.2 mph - N/A   Scattered Clouds
8:15 PM 61.7 °F 52.0 °F 70% 29.95 in 10.0 mi West 17.3 mph 24.2 mph N/A   Overcast
8:35 PM 61.7 °F 52.2 °F 71% 29.93 in 10.0 mi WNW 11.5 mph 18.4 mph N/A   Overcast
8:55 PM 61.7 °F 51.8 °F 70% 29.95 in 10.0 mi NW 6.9 mph 18.4 mph N/A   Mostly Cloudy
9:15 PM 60.1 °F 52.7 °F 77% 29.97 in 10.0 mi NW 15.0 mph 25.3 mph N/A Rain Light Rain
9:35 PM 58.3 °F 52.5 °F 81% 29.98 in 10.0 mi NW 8.1 mph 16.1 mph N/A   Drizzle
9:55 PM 58.1 °F 50.5 °F 76% 29.98 in 10.0 mi WNW 18.4 mph 24.2 mph N/A   Overcast
10:15 PM 57.7 °F 50.0 °F 75% 29.99 in 10.0 mi WNW 11.5 mph 23.0 mph N/A   Mostly Cloudy
10:35 PM 57.2 °F 50.4 °F 78% 29.98 in 10.0 mi WNW 9.2 mph - N/A   Mostly Cloudy
10:55 PM 58.3 °F 50.0 °F 74% 29.98 in 10.0 mi WNW 9.2 mph - N/A   Overcast
11:15 PM 57.7 °F 50.2 °F 76% 29.98 in 10.0 mi NW 9.2 mph 18.4 mph N/A   Overcast
11:35 PM 57.2 °F 50.9 °F 79% 29.98 in 10.0 mi NW 10.4 mph - N/A   Overcast
11:55 PM 56.8 °F 50.7 °F 80% 29.98 in 10.0 mi NW 11.5 mph 19.6 mph N/A Rain Rain